Regional Weather Roundup
Issued by NWS Charleston, WV

Home | Current Version | Previous Version | Text Only | Print | Product List | Glossary Off
Versions: 1 2 3 4 5 6 7 8 9 10 11 12 13 14 15 16 17 18 19 20 21 22 23 24 25 26 27 28 29 30 31 32 33 34 35 36 37 38 39 40 41 42 43 44 45 46 47 48 49 50

000
ASUS41 KRLX 011510
RWRRLX
West Virginia Regional Weather Roundup
National Weather Service Charleston WV
1100 AM EDT MON JUN 01 2015

Note: "fair" indicates few or no clouds below 12,000 feet with no
significant weather and/or obstructions to visibility.

WVZ003-011600-
Northern Panhandle of West Virginia

CITY           SKY/WX    TMP DP  RH WIND       PRES   REMARKS
WHEELING       CLOUDY    51  47  86 NW6       30.14S
$$

WVZ009-011600-
Northwest West Virginia

CITY           SKY/WX    TMP DP  RH WIND       PRES   REMARKS
PARKERSBURG    CLOUDY    56  48  74 N8        30.16F
$$

WVZ006-011600-
Western West Virginia

CITY           SKY/WX    TMP DP  RH WIND       PRES   REMARKS
HUNTINGTON     CLOUDY    58  53  84 N5        30.10F
$$

WVZ015-011600-
West Central West Virginia

CITY           SKY/WX    TMP DP  RH WIND       PRES   REMARKS
CHARLESTON     CLOUDY    62  56  80 NE3       30.10F
$$

WVZ022-031-011600-
North Central West Virginia

CITY           SKY/WX    TMP DP  RH WIND       PRES   REMARKS
CLARKSBURG     CLOUDY    57  56  96 NW5       30.12R FOG
MORGANTOWN     CLOUDY    55  51  86 N7        30.14R FOG
$$

WVZ025-035-042-045-011600-
Southern West Virginia

CITY           SKY/WX    TMP DP  RH WIND       PRES   REMARKS
BECKLEY        MOSUNNY   73  61  65 S5        30.12F
LOGAN          FOG       64  64 100 CALM      30.06F VSB<1/4
BLUEFIELD      CLOUDY    76  59  55 W5        30.14F
LEWISBURG      SUNNY     69  64  85 W3        30.13F
$$

WVZ047-011600-
Northern Mountains of West Virginia

CITY           SKY/WX    TMP DP  RH WIND       PRES   REMARKS
ELKINS         PTSUNNY   69  62  78 NW6       30.11R
$$

WVZ052-011600-
Eastern Panhandle of West Virginia

CITY           SKY/WX    TMP DP  RH WIND       PRES   REMARKS
MARTINSBURG    MOSUNNY   79  68  69 CALM      30.03F
PETERSBURG     PTSUNNY   78  63  59 S5        30.05S
$$



USA.gov is the U.S. government's official web portal to all federal, state and local government web resources and services.